Torna al catalogo

COSMOS 2251 DEB

AttivoLEO
NORAD 34949·DEBRIS·🇷🇺 Russia

Lanciato Jun 16, 1993 da Plesetsk Cosmodrome

Loading…

Prossimi Passaggi (prossime 24 ore)

TLE

AggiornatoSource: Space-Track

Epoca: Sep 14, 2026, 10:59 UTC

1 34949U 93036AEC 26257.45766461  .00001358  00000-0  19616-3 0  9994
2 34949  74.0157 290.3918 0077907   3.8727 356.3032 14.75260533924265

Traccia COSMOS 2251 DEB in tempo reale con AllMySat

Download on the App Store